This is the latest recevied weather packets stored in our database for station/object KE5WTH-14. If no packets are shown the sender has not sent any weather packets the latest 10 day(s).
| Time | Temp. | Humidity | Pressure | Rain* | Wind** | Luminosity | Snow |
|---|---|---|---|---|---|---|---|
| 1777654452 | 17.22° C | 68% | 1017.3 hPa | 0 mm | - | 631 W/m² | - |
| 1777654385 | 17.22° C | 69% | 1017.2 hPa | 0 mm | - | 582 W/m² | - |
| 1777654327 | 17.22° C | 70% | 1017.2 hPa | 0 mm | - | 563 W/m² | - |
| 1777654267 | 17.22° C | 72% | 1017.3 hPa | 0 mm | - | 487 W/m² | - |
| 1777654190 | 17.22° C | 71% | 1017.3 hPa | 0 mm | - | 538 W/m² | - |
| 1777654128 | 17.22° C | 71% | 1017.4 hPa | 0 mm | - | 744 W/m² | - |
| 1777654078 | 17.22° C | 70% | 1017.4 hPa | 0 mm | - | 644 W/m² | - |
| 1777654050 | 17.22° C | 70% | 1017.6 hPa | 0 mm | - | 644 W/m² | - |
| 1777654019 | 17.22° C | 69% | 1017.7 hPa | 0 mm | - | 538 W/m² | - |
| 1777653989 | 17.22° C | 70% | 1017.7 hPa | 0 mm | - | 470 W/m² | - |
| 1777653821 | 17.22° C | 70% | 1018 hPa | 0 mm | - | 471 W/m² | - |
| 1777653760 | 17.22° C | 70% | 1017.7 hPa | 0 mm | - | 505 W/m² | - |
| 1777653698 | 16.67° C | 70% | 1017.8 hPa | 0 mm | - | 552 W/m² | - |
| 1777653635 | 16.67° C | 70% | 1017.7 hPa | 0 mm | - | 612 W/m² | - |
| 1777653575 | 16.67° C | 73% | 1017.6 hPa | 0 mm | - | 1052 W/m² | - |
| 1777653514 | 16.67° C | 71% | 1017.6 hPa | 0 mm | - | 1032 W/m² | - |
| 1777653455 | 16.67° C | 71% | 1017.6 hPa | 0 mm | - | 580 W/m² | - |
| 1777653395 | 16.67° C | 72% | 1017.6 hPa | 0 mm | - | 589 W/m² | - |
| 1777653335 | 16.67° C | 73% | 1017.6 hPa | 0 mm | - | 593 W/m² | - |
| 1777653274 | 16.67° C | 72% | 1017.5 hPa | 0 mm | - | 823 W/m² | - |
| 1777653216 | 16.67° C | 72% | 1017.6 hPa | 0 mm | - | 524 W/m² | - |
| 1777653151 | 16.67° C | 72% | 1017.6 hPa | 0 mm | - | 454 W/m² | - |
| 1777653095 | 16.67° C | 72% | 1017.6 hPa | 0 mm | - | 454 W/m² | - |
| 1777653035 | 16.67° C | 72% | 1017.7 hPa | 0 mm | - | 487 W/m² | - |
| 1777652974 | 16.67° C | 73% | 1017.7 hPa | 0 mm | - | 557 W/m² | - |
* Rain latest hour (hover to see other rain measurements)
** Current wind speed in m/s (hover to see current wind gust speed)